Location: Christian Reformed Church
(43.0975°N, 93.8113°W)
Time: 03:51:39
(UTC+00:00)

Landsat 7 - Visible Passes

Search period start: 17 March 2026 00:00
Search period end: 27 March 2026 00:00
Orbit: 680 x 682 km, 97.9° (Epoch: 16 March)

Date Brightness Start Highest point End Pass type
(mag) Time Alt. Az. Time Alt. Az. Time Alt. Az.
18 Mar 6.7 11:35:44 10° NE 11:39:18 22° E 11:42:52 10° SE visible
20 Mar 7.0 00:53:58 10° SW 00:56:54 16° W 00:59:50 10° NW visible
20 Mar 7.2 11:12:00 10° ENE 11:13:49 12° E 11:15:38 10° ESE visible
21 Mar 6.3 11:46:14 10° NE 11:50:14 28° E 11:54:11 10° SSE visible
23 Mar 7.3 01:05:51 10° WSW 01:07:51 13° W 01:09:52 10° WNW visible
23 Mar 6.9 11:21:57 10° NE 11:24:47 16° E 11:27:36 10° SE visible
26 Mar 6.7 11:32:15 10° NE 11:35:43 20° E 11:39:10 10° SE visible
